Year,Month,Day,Hour,Minute,Value (Times are PST for temperature in C)
2013,05,04,00,00,15.50
2013,05,04,00,01,15.50
2013,05,04,00,02,15.50
2013,05,04,00,03,15.40
2013,05,04,00,04,15.40
2013,05,04,00,05,15.40
2013,05,04,00,06,15.30
2013,05,04,00,07,15.30
2013,05,04,00,08,15.30
2013,05,04,00,09,15.30
2013,05,04,00,10,15.30
2013,05,04,00,11,15.30
2013,05,04,00,12,15.30
2013,05,04,00,13,15.30
2013,05,04,00,14,15.20
2013,05,04,00,15,15.20
2013,05,04,00,16,15.20
2013,05,04,00,17,15.20
2013,05,04,00,18,15.10
2013,05,04,00,19,15.10
2013,05,04,00,20,15.20
2013,05,04,00,21,15.20
2013,05,04,00,22,15.20
2013,05,04,00,23,15.20
2013,05,04,00,24,15.10
2013,05,04,00,25,15.10
2013,05,04,00,26,15.10
2013,05,04,00,27,15.10
2013,05,04,00,28,15.10
2013,05,04,00,29,15.10
2013,05,04,00,30,15.10
2013,05,04,00,31,15.00
2013,05,04,00,32,15.00
2013,05,04,00,33,15.00
2013,05,04,00,34,15.00
2013,05,04,00,35,15.00
2013,05,04,00,36,14.90
2013,05,04,00,37,14.80
2013,05,04,00,38,14.80
2013,05,04,00,39,14.80
2013,05,04,00,40,14.80
2013,05,04,00,41,14.70
2013,05,04,00,42,14.70
2013,05,04,00,43,14.70
2013,05,04,00,44,14.80
2013,05,04,00,45,14.80
2013,05,04,00,46,14.80
2013,05,04,00,47,14.70
2013,05,04,00,48,14.70
2013,05,04,00,49,14.70
2013,05,04,00,50,14.70
2013,05,04,00,51,14.70
2013,05,04,00,52,14.80
2013,05,04,00,53,14.80
2013,05,04,00,54,14.70
2013,05,04,00,55,14.70
2013,05,04,00,56,14.70
2013,05,04,00,57,14.70
2013,05,04,00,58,14.70
2013,05,04,00,59,14.70
2013,05,04,01,00,14.70
2013,05,04,01,01,14.70
2013,05,04,01,02,14.70
2013,05,04,01,03,14.70
2013,05,04,01,04,14.60
2013,05,04,01,05,14.60
2013,05,04,01,06,14.60
2013,05,04,01,07,14.60
2013,05,04,01,08,14.60
2013,05,04,01,09,14.50
2013,05,04,01,10,14.50
2013,05,04,01,11,14.50
2013,05,04,01,12,14.40
2013,05,04,01,13,14.40
2013,05,04,01,14,14.30
2013,05,04,01,15,14.20
2013,05,04,01,16,14.20
2013,05,04,01,17,14.20
2013,05,04,01,18,14.10
2013,05,04,01,19,14.10
2013,05,04,01,20,14.00
2013,05,04,01,21,14.00
2013,05,04,01,22,14.00
2013,05,04,01,23,14.00
2013,05,04,01,24,13.90
2013,05,04,01,25,13.90
2013,05,04,01,26,13.80
2013,05,04,01,27,13.80
2013,05,04,01,28,13.70
2013,05,04,01,29,13.70
2013,05,04,01,30,13.70
2013,05,04,01,31,13.70
2013,05,04,01,32,13.70
2013,05,04,01,33,13.80
2013,05,04,01,34,13.80
2013,05,04,01,35,13.90
2013,05,04,01,36,13.90
2013,05,04,01,37,13.90
2013,05,04,01,38,14.00
2013,05,04,01,39,14.00
2013,05,04,01,40,14.00
2013,05,04,01,41,14.10
2013,05,04,01,42,14.10
2013,05,04,01,43,14.10
2013,05,04,01,44,14.20
2013,05,04,01,45,14.20
2013,05,04,01,46,14.20
2013,05,04,01,47,14.20
2013,05,04,01,48,14.20
2013,05,04,01,49,14.30
2013,05,04,01,50,14.30
2013,05,04,01,51,14.30
2013,05,04,01,52,14.30
2013,05,04,01,53,14.30
2013,05,04,01,54,14.30
2013,05,04,01,55,14.30
2013,05,04,01,56,14.30
2013,05,04,01,57,14.30
2013,05,04,01,58,14.30
2013,05,04,01,59,14.30
2013,05,04,02,00,14.30
2013,05,04,02,01,14.30
2013,05,04,02,02,14.20
2013,05,04,02,03,14.20
2013,05,04,02,04,14.20
2013,05,04,02,05,14.20
2013,05,04,02,06,14.20
2013,05,04,02,07,14.20
2013,05,04,02,08,14.20
2013,05,04,02,09,14.20
2013,05,04,02,10,14.20
2013,05,04,02,11,14.10
2013,05,04,02,12,14.10
2013,05,04,02,13,14.00
2013,05,04,02,14,14.00
2013,05,04,02,15,13.90
2013,05,04,02,16,13.90
2013,05,04,02,17,13.90
2013,05,04,02,18,13.80
2013,05,04,02,19,13.80
2013,05,04,02,20,13.80
2013,05,04,02,21,13.70
2013,05,04,02,22,13.70
2013,05,04,02,23,13.70
2013,05,04,02,24,13.70
2013,05,04,02,25,13.70
2013,05,04,02,26,13.70
2013,05,04,02,27,13.60
2013,05,04,02,28,13.60
2013,05,04,02,29,13.60
2013,05,04,02,30,13.60
2013,05,04,02,31,13.60
2013,05,04,02,32,13.50
2013,05,04,02,33,13.50
2013,05,04,02,34,13.50
2013,05,04,02,35,13.50
2013,05,04,02,36,13.60
2013,05,04,02,37,13.60
2013,05,04,02,38,13.50
2013,05,04,02,39,13.50
2013,05,04,02,40,13.50
2013,05,04,02,41,13.50
2013,05,04,02,42,13.50
2013,05,04,02,43,13.50
2013,05,04,02,44,13.40
2013,05,04,02,45,13.40
2013,05,04,02,46,13.40
2013,05,04,02,47,13.30
2013,05,04,02,48,13.30
2013,05,04,02,49,13.30
2013,05,04,02,50,13.30
2013,05,04,02,51,13.30
2013,05,04,02,52,13.20
2013,05,04,02,53,13.20
2013,05,04,02,54,13.20
2013,05,04,02,55,13.10
2013,05,04,02,56,13.10
2013,05,04,02,57,13.10
2013,05,04,02,58,13.00
2013,05,04,02,59,13.00
2013,05,04,03,00,13.00
2013,05,04,03,01,13.00
2013,05,04,03,02,12.90
2013,05,04,03,03,12.90
2013,05,04,03,04,12.90
2013,05,04,03,05,12.90
2013,05,04,03,06,12.90
2013,05,04,03,07,12.90
2013,05,04,03,08,12.90
2013,05,04,03,09,12.90
2013,05,04,03,10,12.90
2013,05,04,03,11,13.00
2013,05,04,03,12,13.00
2013,05,04,03,13,12.90
2013,05,04,03,14,12.90
2013,05,04,03,15,12.90
2013,05,04,03,16,12.90
2013,05,04,03,17,12.90
2013,05,04,03,18,12.90
2013,05,04,03,19,12.90
2013,05,04,03,20,12.90
2013,05,04,03,21,13.00
2013,05,04,03,22,13.00
2013,05,04,03,23,13.10
2013,05,04,03,24,13.10
2013,05,04,03,25,13.20
2013,05,04,03,26,13.20
2013,05,04,03,27,13.30
2013,05,04,03,28,13.30
2013,05,04,03,29,13.30
2013,05,04,03,30,13.30
2013,05,04,03,31,13.30
2013,05,04,03,32,13.30
2013,05,04,03,33,13.30
2013,05,04,03,34,13.30
2013,05,04,03,35,13.30
2013,05,04,03,36,13.30
2013,05,04,03,37,13.30
2013,05,04,03,38,13.30
2013,05,04,03,39,13.30
2013,05,04,03,40,13.30
2013,05,04,03,41,13.30
2013,05,04,03,42,13.30
2013,05,04,03,43,13.30
2013,05,04,03,44,13.20
2013,05,04,03,45,13.10
2013,05,04,03,46,13.10
2013,05,04,03,47,13.10
2013,05,04,03,48,13.00
2013,05,04,03,49,13.00
2013,05,04,03,50,13.00
2013,05,04,03,51,12.90
2013,05,04,03,52,12.90
2013,05,04,03,53,12.90
2013,05,04,03,54,12.80
2013,05,04,03,55,12.80
2013,05,04,03,56,12.80
2013,05,04,03,57,12.80
2013,05,04,03,58,12.80
2013,05,04,03,59,12.80
2013,05,04,04,00,12.80
2013,05,04,04,01,12.80
2013,05,04,04,02,12.80
2013,05,04,04,03,12.80
2013,05,04,04,04,12.80
2013,05,04,04,05,12.80
2013,05,04,04,06,12.70
2013,05,04,04,07,12.70
2013,05,04,04,08,12.70
2013,05,04,04,09,12.70
2013,05,04,04,10,12.80
2013,05,04,04,11,12.80
2013,05,04,04,12,12.80
2013,05,04,04,13,12.80
2013,05,04,04,14,12.90
2013,05,04,04,15,13.00
2013,05,04,04,16,13.00
2013,05,04,04,17,13.10
2013,05,04,04,18,13.20
2013,05,04,04,19,13.20
2013,05,04,04,20,13.20
2013,05,04,04,21,13.30
2013,05,04,04,22,13.30
2013,05,04,04,23,13.20
2013,05,04,04,24,13.20
2013,05,04,04,25,13.10
2013,05,04,04,26,13.00
2013,05,04,04,27,13.00
2013,05,04,04,28,12.90
2013,05,04,04,29,12.90
2013,05,04,04,30,12.80
2013,05,04,04,31,12.80
2013,05,04,04,32,12.80
2013,05,04,04,33,12.80
2013,05,04,04,34,12.80
2013,05,04,04,35,12.80
2013,05,04,04,36,12.80
2013,05,04,04,37,12.80
2013,05,04,04,38,12.80
2013,05,04,04,39,12.80
2013,05,04,04,40,12.80
2013,05,04,04,41,12.90
2013,05,04,04,42,12.90
2013,05,04,04,43,12.90
2013,05,04,04,44,12.90
2013,05,04,04,45,12.90
2013,05,04,04,46,12.90
2013,05,04,04,47,12.90
2013,05,04,04,48,12.90
2013,05,04,04,49,12.90
2013,05,04,04,50,12.90
2013,05,04,04,51,12.90
2013,05,04,04,52,12.90
2013,05,04,04,53,12.90
2013,05,04,04,54,12.90
2013,05,04,04,55,12.90
2013,05,04,04,56,12.90
2013,05,04,04,57,13.00
2013,05,04,04,58,13.00
2013,05,04,04,59,13.00
2013,05,04,05,00,13.00
2013,05,04,05,01,13.00
2013,05,04,05,02,13.00
2013,05,04,05,03,12.90
2013,05,04,05,04,13.00
2013,05,04,05,05,13.00
2013,05,04,05,06,13.00
2013,05,04,05,07,13.00
2013,05,04,05,08,13.00
2013,05,04,05,09,13.00
2013,05,04,05,10,13.00
2013,05,04,05,11,13.00
2013,05,04,05,12,13.00
2013,05,04,05,13,13.00
2013,05,04,05,14,13.00
2013,05,04,05,15,12.90
2013,05,04,05,16,12.90
2013,05,04,05,17,12.90
2013,05,04,05,18,12.90
2013,05,04,05,19,12.90
2013,05,04,05,20,12.90
2013,05,04,05,21,12.90
2013,05,04,05,22,12.80
2013,05,04,05,23,12.90
2013,05,04,05,24,12.90
2013,05,04,05,25,12.90
2013,05,04,05,26,12.80
2013,05,04,05,27,12.80
2013,05,04,05,28,12.80
2013,05,04,05,29,12.80
2013,05,04,05,30,12.80
2013,05,04,05,31,12.80
2013,05,04,05,32,12.80
2013,05,04,05,33,12.80
2013,05,04,05,34,12.80
2013,05,04,05,35,12.80
2013,05,04,05,36,12.80
2013,05,04,05,37,12.80
2013,05,04,05,38,12.80
2013,05,04,05,39,12.80
2013,05,04,05,40,12.80
2013,05,04,05,41,12.80
2013,05,04,05,42,12.80
2013,05,04,05,43,12.80
2013,05,04,05,44,12.80
2013,05,04,05,45,12.80
2013,05,04,05,46,12.80
2013,05,04,05,47,12.80
2013,05,04,05,48,12.80
2013,05,04,05,49,12.80
2013,05,04,05,50,12.80
2013,05,04,05,51,12.80
2013,05,04,05,52,12.80
2013,05,04,05,53,12.80
2013,05,04,05,54,12.80
2013,05,04,05,55,12.80
2013,05,04,05,56,12.80
2013,05,04,05,57,12.80
2013,05,04,05,58,12.80
2013,05,04,05,59,12.80
2013,05,04,06,00,12.80
2013,05,04,06,01,12.80
2013,05,04,06,02,12.80
2013,05,04,06,03,12.80
2013,05,04,06,04,12.80
2013,05,04,06,05,12.80
2013,05,04,06,06,12.70
2013,05,04,06,07,12.70
2013,05,04,06,08,12.70
2013,05,04,06,09,12.60
2013,05,04,06,10,12.50
2013,05,04,06,11,12.50
2013,05,04,06,12,12.40
2013,05,04,06,13,12.30
2013,05,04,06,14,12.20
2013,05,04,06,15,12.20
2013,05,04,06,16,12.20
2013,05,04,06,17,12.20
2013,05,04,06,18,12.20
2013,05,04,06,19,12.20
2013,05,04,06,20,12.20
2013,05,04,06,21,12.20
2013,05,04,06,22,12.20
2013,05,04,06,23,12.20
2013,05,04,06,24,12.20
2013,05,04,06,25,12.30
2013,05,04,06,26,12.30
2013,05,04,06,27,12.30
2013,05,04,06,28,12.30
2013,05,04,06,29,12.30
2013,05,04,06,30,12.30
2013,05,04,06,31,12.30
2013,05,04,06,32,12.40
2013,05,04,06,33,12.40
2013,05,04,06,34,12.40
2013,05,04,06,35,12.40
2013,05,04,06,36,12.50
2013,05,04,06,37,12.50
2013,05,04,06,38,12.50
2013,05,04,06,39,12.60
2013,05,04,06,40,12.60
2013,05,04,06,41,12.60
2013,05,04,06,42,12.60
2013,05,04,06,43,12.60
2013,05,04,06,44,12.60
2013,05,04,06,45,12.60
2013,05,04,06,46,12.70
2013,05,04,06,47,12.70
2013,05,04,06,48,12.70
2013,05,04,06,49,12.70
2013,05,04,06,50,12.70
2013,05,04,06,51,12.70
2013,05,04,06,52,12.80
2013,05,04,06,53,12.80
2013,05,04,06,54,12.80
2013,05,04,06,55,12.80
2013,05,04,06,56,12.90
2013,05,04,06,57,12.90
2013,05,04,06,58,13.00
2013,05,04,06,59,13.10
2013,05,04,07,00,13.10
2013,05,04,07,01,13.20
2013,05,04,07,02,13.20
2013,05,04,07,03,13.30
2013,05,04,07,04,13.30
2013,05,04,07,05,13.30
2013,05,04,07,06,13.30
2013,05,04,07,07,13.30
2013,05,04,07,08,13.30
2013,05,04,07,09,13.30
2013,05,04,07,10,13.40
2013,05,04,07,11,13.40
2013,05,04,07,12,13.40
2013,05,04,07,13,13.40
2013,05,04,07,14,13.40
2013,05,04,07,15,13.40
2013,05,04,07,16,13.40
2013,05,04,07,17,13.40
2013,05,04,07,18,13.40
2013,05,04,07,19,13.40
2013,05,04,07,20,13.40
2013,05,04,07,21,13.40
2013,05,04,07,22,13.40
2013,05,04,07,23,13.50
2013,05,04,07,24,13.50
2013,05,04,07,25,13.50
2013,05,04,07,26,13.60
2013,05,04,07,27,13.60
2013,05,04,07,28,13.60
2013,05,04,07,29,13.60
2013,05,04,07,30,13.70
2013,05,04,07,31,13.70
2013,05,04,07,32,13.80
2013,05,04,07,33,13.90
2013,05,04,07,34,14.00
2013,05,04,07,35,14.00
2013,05,04,07,36,14.00
2013,05,04,07,37,14.10
2013,05,04,07,38,14.10
2013,05,04,07,39,14.10
2013,05,04,07,40,14.10
2013,05,04,07,41,14.10
2013,05,04,07,42,14.20
2013,05,04,07,43,14.20
2013,05,04,07,44,14.20
2013,05,04,07,45,14.20
2013,05,04,07,46,14.20
2013,05,04,07,47,14.20
2013,05,04,07,48,14.20
2013,05,04,07,49,14.20
2013,05,04,07,50,14.20
2013,05,04,07,51,14.20
2013,05,04,07,52,14.20
2013,05,04,07,53,14.20
2013,05,04,07,54,14.20
2013,05,04,07,55,14.20
2013,05,04,07,56,14.20
2013,05,04,07,57,14.20
2013,05,04,07,58,14.20
2013,05,04,07,59,14.20
2013,05,04,08,00,14.20
2013,05,04,08,01,14.20
2013,05,04,08,02,14.20
2013,05,04,08,03,14.30
2013,05,04,08,04,14.30
2013,05,04,08,05,14.30
2013,05,04,08,06,14.20
2013,05,04,08,07,14.20
2013,05,04,08,08,14.20
2013,05,04,08,09,14.20
2013,05,04,08,10,14.20
2013,05,04,08,11,14.20
2013,05,04,08,12,14.20
2013,05,04,08,13,14.20
2013,05,04,08,14,14.20
2013,05,04,08,15,14.30
2013,05,04,08,16,14.40
2013,05,04,08,17,14.40
2013,05,04,08,18,14.40
2013,05,04,08,19,14.40
2013,05,04,08,20,14.30
2013,05,04,08,21,14.30
2013,05,04,08,22,14.20
2013,05,04,08,23,14.20
2013,05,04,08,24,14.20
2013,05,04,08,25,14.20
2013,05,04,08,26,14.20
2013,05,04,08,27,14.30
2013,05,04,08,28,14.30
2013,05,04,08,29,14.30
2013,05,04,08,30,14.30
2013,05,04,08,31,14.20
2013,05,04,08,32,14.20
2013,05,04,08,33,14.20
2013,05,04,08,34,14.30
2013,05,04,08,35,14.40
2013,05,04,08,36,14.40
2013,05,04,08,37,14.50
2013,05,04,08,38,14.50
2013,05,04,08,39,14.40
2013,05,04,08,40,14.40
2013,05,04,08,41,14.40
2013,05,04,08,42,14.40
2013,05,04,08,43,14.40
2013,05,04,08,44,14.40
2013,05,04,08,45,14.40
2013,05,04,08,46,14.40
2013,05,04,08,47,14.50
2013,05,04,08,48,14.50
2013,05,04,08,49,14.50
2013,05,04,08,50,14.50
2013,05,04,08,51,14.60
2013,05,04,08,52,14.60
2013,05,04,08,53,14.70
2013,05,04,08,54,14.70
2013,05,04,08,55,14.80
2013,05,04,08,56,14.80
2013,05,04,08,57,14.80
2013,05,04,08,58,14.80
2013,05,04,08,59,14.80
2013,05,04,09,00,14.80
2013,05,04,09,01,14.80
2013,05,04,09,02,14.80
2013,05,04,09,03,14.80
2013,05,04,09,04,14.80
2013,05,04,09,05,14.80
2013,05,04,09,06,14.80
2013,05,04,09,07,14.80
2013,05,04,09,08,14.80
2013,05,04,09,09,14.80
2013,05,04,09,10,14.90
2013,05,04,09,11,15.00
2013,05,04,09,12,15.00
2013,05,04,09,13,15.00
2013,05,04,09,14,15.00
2013,05,04,09,15,15.00
2013,05,04,09,16,14.90
2013,05,04,09,17,14.90
2013,05,04,09,18,14.90
2013,05,04,09,19,14.90
2013,05,04,09,20,14.90
2013,05,04,09,21,14.80
2013,05,04,09,22,14.80
2013,05,04,09,23,14.70
2013,05,04,09,24,14.70
2013,05,04,09,25,14.60
2013,05,04,09,26,14.60
2013,05,04,09,27,14.60
2013,05,04,09,28,14.60
2013,05,04,09,29,14.50
2013,05,04,09,30,14.60
2013,05,04,09,31,14.60
2013,05,04,09,32,14.60
2013,05,04,09,33,14.60
2013,05,04,09,34,14.70
2013,05,04,09,35,14.70
2013,05,04,09,36,14.80
2013,05,04,09,37,14.80
2013,05,04,09,38,14.90
2013,05,04,09,39,14.90
2013,05,04,09,40,15.00
2013,05,04,09,41,15.00
2013,05,04,09,42,15.00
2013,05,04,09,43,14.90
2013,05,04,09,44,14.90
2013,05,04,09,45,14.90
2013,05,04,09,46,15.00
2013,05,04,09,47,15.00
2013,05,04,09,48,15.00
2013,05,04,09,49,15.00
2013,05,04,09,50,15.00
2013,05,04,09,51,15.00
2013,05,04,09,52,14.90
2013,05,04,09,53,14.90
2013,05,04,09,54,14.90
2013,05,04,09,55,15.00
2013,05,04,09,56,15.00
2013,05,04,09,57,15.10
2013,05,04,09,58,15.10
2013,05,04,09,59,15.10
2013,05,04,10,00,15.10
2013,05,04,10,01,15.00
2013,05,04,10,02,15.00
2013,05,04,10,03,15.00
2013,05,04,10,04,15.00
2013,05,04,10,05,14.90
2013,05,04,10,06,14.80
2013,05,04,10,07,14.80
2013,05,04,10,08,14.90
2013,05,04,10,09,14.90
2013,05,04,10,10,15.00
2013,05,04,10,11,15.00
2013,05,04,10,12,14.90
2013,05,04,10,13,15.00
2013,05,04,10,14,15.10
2013,05,04,10,15,15.20
2013,05,04,10,16,15.30
2013,05,04,10,17,15.40
2013,05,04,10,18,15.50
2013,05,04,10,19,15.60
2013,05,04,10,20,15.70
2013,05,04,10,21,15.70
2013,05,04,10,22,15.80
2013,05,04,10,23,15.80
2013,05,04,10,24,15.80
2013,05,04,10,25,15.70
2013,05,04,10,26,15.60
2013,05,04,10,27,15.70
2013,05,04,10,28,15.70
2013,05,04,10,29,15.80
2013,05,04,10,30,15.90
2013,05,04,10,31,16.00
2013,05,04,10,32,16.10
2013,05,04,10,33,16.20
2013,05,04,10,34,16.20
2013,05,04,10,35,16.30
2013,05,04,10,36,16.20
2013,05,04,10,37,16.10
2013,05,04,10,38,16.10
2013,05,04,10,39,15.90
2013,05,04,10,40,15.90
2013,05,04,10,41,15.90
2013,05,04,10,42,16.00
2013,05,04,10,43,16.10
2013,05,04,10,44,16.20
2013,05,04,10,45,16.30
2013,05,04,10,46,16.40
2013,05,04,10,47,16.40
2013,05,04,10,48,16.40
2013,05,04,10,49,16.50
2013,05,04,10,50,16.40
2013,05,04,10,51,16.40
2013,05,04,10,52,16.40
2013,05,04,10,53,16.40
2013,05,04,10,54,16.40
2013,05,04,10,55,16.40
2013,05,04,10,56,16.40
2013,05,04,10,57,16.40
2013,05,04,10,58,16.40
2013,05,04,10,59,16.30
2013,05,04,11,00,16.30
2013,05,04,11,01,16.30
2013,05,04,11,02,16.30
2013,05,04,11,03,16.30
2013,05,04,11,04,16.40
2013,05,04,11,05,16.40
2013,05,04,11,06,16.30
2013,05,04,11,07,16.10
2013,05,04,11,08,16.00
2013,05,04,11,09,15.90
2013,05,04,11,10,15.90
2013,05,04,11,11,15.90
2013,05,04,11,12,15.80
2013,05,04,11,13,15.80
2013,05,04,11,14,15.80
2013,05,04,11,15,15.80
2013,05,04,11,16,15.90
2013,05,04,11,17,16.00
2013,05,04,11,18,16.10
2013,05,04,11,19,16.10
2013,05,04,11,20,16.00
2013,05,04,11,21,15.80
2013,05,04,11,22,15.70
2013,05,04,11,23,15.70
2013,05,04,11,24,15.60
2013,05,04,11,25,15.40
2013,05,04,11,26,15.30
2013,05,04,11,27,15.30
2013,05,04,11,28,15.30
2013,05,04,11,29,15.30
2013,05,04,11,30,15.30
2013,05,04,11,31,15.30
2013,05,04,11,32,15.20
2013,05,04,11,33,15.30
2013,05,04,11,34,15.30
2013,05,04,11,35,15.30
2013,05,04,11,36,15.50
2013,05,04,11,37,15.60
2013,05,04,11,38,15.80
2013,05,04,11,39,15.80
2013,05,04,11,40,15.80
2013,05,04,11,41,15.90
2013,05,04,11,42,16.10
2013,05,04,11,43,16.10
2013,05,04,11,44,16.20
2013,05,04,11,45,16.20
2013,05,04,11,46,16.10
2013,05,04,11,47,16.10
2013,05,04,11,48,16.10
2013,05,04,11,49,16.00
2013,05,04,11,50,15.90
2013,05,04,11,51,15.90
2013,05,04,11,52,16.00
2013,05,04,11,53,16.10
2013,05,04,11,54,16.10
2013,05,04,11,55,16.10
2013,05,04,11,56,16.20
2013,05,04,11,57,16.30
2013,05,04,11,58,16.30
2013,05,04,11,59,16.40
2013,05,04,12,00,16.30
2013,05,04,12,01,16.30
2013,05,04,12,02,16.30
2013,05,04,12,03,16.40
2013,05,04,12,04,16.40
2013,05,04,12,05,16.50
2013,05,04,12,06,16.70
2013,05,04,12,07,16.80
2013,05,04,12,08,16.80
2013,05,04,12,09,16.80
2013,05,04,12,10,16.80
2013,05,04,12,11,16.90
2013,05,04,12,12,16.90
2013,05,04,12,13,17.00
2013,05,04,12,14,17.20
2013,05,04,12,15,17.20
2013,05,04,12,16,17.30
2013,05,04,12,17,17.30
2013,05,04,12,18,17.40
2013,05,04,12,19,17.50
2013,05,04,12,20,17.50
2013,05,04,12,21,17.40
2013,05,04,12,22,17.50
2013,05,04,12,23,17.60
2013,05,04,12,24,17.70
2013,05,04,12,25,17.80
2013,05,04,12,26,17.90
2013,05,04,12,27,17.90
2013,05,04,12,28,17.90
2013,05,04,12,29,17.90
2013,05,04,12,30,17.90
2013,05,04,12,31,17.90
2013,05,04,12,32,17.90
2013,05,04,12,33,17.90
2013,05,04,12,34,17.80
2013,05,04,12,35,17.60
2013,05,04,12,36,17.60
2013,05,04,12,37,17.60
2013,05,04,12,38,17.60
2013,05,04,12,39,17.50
2013,05,04,12,40,17.40
2013,05,04,12,41,17.30
2013,05,04,12,42,17.30
2013,05,04,12,43,17.20
2013,05,04,12,44,17.20
2013,05,04,12,45,17.20
2013,05,04,12,46,17.20
2013,05,04,12,47,17.20
2013,05,04,12,48,17.20
2013,05,04,12,49,17.30
2013,05,04,12,50,17.30
2013,05,04,12,51,17.50
2013,05,04,12,52,17.70
2013,05,04,12,53,17.80
2013,05,04,12,54,17.90
2013,05,04,12,55,17.90
2013,05,04,12,56,17.90
2013,05,04,12,57,17.90
2013,05,04,12,58,18.00
2013,05,04,12,59,18.10
2013,05,04,13,00,18.20
2013,05,04,13,01,18.30
2013,05,04,13,02,18.30
2013,05,04,13,03,18.30
2013,05,04,13,04,18.30
2013,05,04,13,05,18.30
2013,05,04,13,06,18.50
2013,05,04,13,07,18.60
2013,05,04,13,08,18.60
2013,05,04,13,09,18.50
2013,05,04,13,10,18.50
2013,05,04,13,11,18.50
2013,05,04,13,12,18.50
2013,05,04,13,13,18.40
2013,05,04,13,14,18.30
2013,05,04,13,15,18.30
2013,05,04,13,16,18.20
2013,05,04,13,17,18.20
2013,05,04,13,18,18.20
2013,05,04,13,19,18.10
2013,05,04,13,20,17.90
2013,05,04,13,21,17.90
2013,05,04,13,22,17.80
2013,05,04,13,23,17.70
2013,05,04,13,24,17.60
2013,05,04,13,25,17.60
2013,05,04,13,26,17.60
2013,05,04,13,27,17.60
2013,05,04,13,28,17.60
2013,05,04,13,29,17.60
2013,05,04,13,30,17.70
2013,05,04,13,31,17.80
2013,05,04,13,32,17.80
2013,05,04,13,33,17.80
2013,05,04,13,34,17.80
2013,05,04,13,35,17.90
2013,05,04,13,36,18.00
2013,05,04,13,37,18.10
2013,05,04,13,38,18.10
2013,05,04,13,39,18.10
2013,05,04,13,40,18.20
2013,05,04,13,41,18.20
2013,05,04,13,42,18.20
2013,05,04,13,43,18.30
2013,05,04,13,44,18.30
2013,05,04,13,45,18.30
2013,05,04,13,46,18.20
2013,05,04,13,47,18.20
2013,05,04,13,48,18.20
2013,05,04,13,49,18.20
2013,05,04,13,50,18.30
2013,05,04,13,51,18.40
2013,05,04,13,52,18.40
2013,05,04,13,53,18.40
2013,05,04,13,54,18.50
2013,05,04,13,55,18.50
2013,05,04,13,56,18.60
2013,05,04,13,57,18.60
2013,05,04,13,58,18.80
2013,05,04,13,59,18.90
2013,05,04,14,00,19.00
2013,05,04,14,01,19.10
2013,05,04,14,02,19.00
2013,05,04,14,03,18.90
2013,05,04,14,04,18.90
2013,05,04,14,05,18.90
2013,05,04,14,06,18.90
2013,05,04,14,07,18.90
2013,05,04,14,08,18.90
2013,05,04,14,09,18.90
2013,05,04,14,10,18.90
2013,05,04,14,11,18.90
2013,05,04,14,12,18.90
2013,05,04,14,13,19.10
2013,05,04,14,14,19.10
2013,05,04,14,15,19.20
2013,05,04,14,16,19.20
2013,05,04,14,17,19.20
2013,05,04,14,18,19.20
2013,05,04,14,19,19.20
2013,05,04,14,20,19.10
2013,05,04,14,21,19.20
2013,05,04,14,22,19.20
2013,05,04,14,23,19.20
2013,05,04,14,24,19.30
2013,05,04,14,25,19.30
2013,05,04,14,26,19.30
2013,05,04,14,27,19.30
2013,05,04,14,28,19.40
2013,05,04,14,29,19.40
2013,05,04,14,30,19.50
2013,05,04,14,31,19.70
2013,05,04,14,32,19.80
2013,05,04,14,33,19.90
2013,05,04,14,34,20.10
2013,05,04,14,35,20.20
2013,05,04,14,36,20.40
2013,05,04,14,37,20.40
2013,05,04,14,38,20.40
2013,05,04,14,39,20.40
2013,05,04,14,40,20.40
2013,05,04,14,41,20.50
2013,05,04,14,42,20.50
2013,05,04,14,43,20.60
2013,05,04,14,44,20.70
2013,05,04,14,45,20.80
2013,05,04,14,46,20.90
2013,05,04,14,47,21.00
2013,05,04,14,48,21.00
2013,05,04,14,49,21.10
2013,05,04,14,50,21.10
2013,05,04,14,51,21.10
2013,05,04,14,52,21.10
2013,05,04,14,53,21.10
2013,05,04,14,54,21.10
2013,05,04,14,55,21.10
2013,05,04,14,56,21.00
2013,05,04,14,57,21.00
2013,05,04,14,58,21.00
2013,05,04,14,59,21.10
2013,05,04,15,00,21.20
2013,05,04,15,01,21.20
2013,05,04,15,02,21.20
2013,05,04,15,03,21.10
2013,05,04,15,04,21.10
2013,05,04,15,05,21.20
2013,05,04,15,06,21.10
2013,05,04,15,07,21.00
2013,05,04,15,08,20.80
2013,05,04,15,09,20.80
2013,05,04,15,10,20.70
2013,05,04,15,11,20.60
2013,05,04,15,12,20.70
2013,05,04,15,13,20.80
2013,05,04,15,14,20.80
2013,05,04,15,15,20.90
2013,05,04,15,16,21.00
2013,05,04,15,17,21.10
2013,05,04,15,18,21.30
2013,05,04,15,19,21.30
2013,05,04,15,20,21.30
2013,05,04,15,21,21.30
2013,05,04,15,22,21.30
2013,05,04,15,23,21.30
2013,05,04,15,24,21.20
2013,05,04,15,25,21.20
2013,05,04,15,26,21.30
2013,05,04,15,27,21.30
2013,05,04,15,28,21.30
2013,05,04,15,29,21.30
2013,05,04,15,30,21.30
2013,05,04,15,31,21.20
2013,05,04,15,32,21.20
2013,05,04,15,33,21.20
2013,05,04,15,34,21.20
2013,05,04,15,35,21.30
2013,05,04,15,36,21.40
2013,05,04,15,37,21.50
2013,05,04,15,38,21.60
2013,05,04,15,39,21.70
2013,05,04,15,40,21.90
2013,05,04,15,41,21.90
2013,05,04,15,42,21.90
2013,05,04,15,43,21.80
2013,05,04,15,44,21.90
2013,05,04,15,45,22.00
2013,05,04,15,46,22.10
2013,05,04,15,47,22.10
2013,05,04,15,48,22.10
2013,05,04,15,49,22.10
2013,05,04,15,50,22.10
2013,05,04,15,51,22.10
2013,05,04,15,52,22.10
2013,05,04,15,53,22.10
2013,05,04,15,54,22.00
2013,05,04,15,55,22.00
2013,05,04,15,56,22.00
2013,05,04,15,57,22.00
2013,05,04,15,58,22.00
2013,05,04,15,59,22.00
2013,05,04,16,00,22.00
2013,05,04,16,01,21.90
2013,05,04,16,02,21.90
2013,05,04,16,03,22.00
2013,05,04,16,04,22.00
2013,05,04,16,05,22.00
2013,05,04,16,06,22.00
2013,05,04,16,07,22.10
2013,05,04,16,08,22.10
2013,05,04,16,09,22.10
2013,05,04,16,10,22.20
2013,05,04,16,11,22.20
2013,05,04,16,12,22.10
2013,05,04,16,13,22.10
2013,05,04,16,14,22.10
2013,05,04,16,15,22.10
2013,05,04,16,16,22.10
2013,05,04,16,17,22.20
2013,05,04,16,18,22.20
2013,05,04,16,19,22.30
2013,05,04,16,20,22.30
2013,05,04,16,21,22.30
2013,05,04,16,22,22.40
2013,05,04,16,23,22.40
2013,05,04,16,24,22.50
2013,05,04,16,25,22.50
2013,05,04,16,26,22.50
2013,05,04,16,27,22.50
2013,05,04,16,28,22.50
2013,05,04,16,29,22.60
2013,05,04,16,30,22.60
2013,05,04,16,31,22.60
2013,05,04,16,32,22.40
2013,05,04,16,33,22.30
2013,05,04,16,34,22.20
2013,05,04,16,35,22.20
2013,05,04,16,36,22.10
2013,05,04,16,37,22.10
2013,05,04,16,38,22.20
2013,05,04,16,39,22.20
2013,05,04,16,40,22.20
2013,05,04,16,41,22.30
2013,05,04,16,42,22.20
2013,05,04,16,43,22.20
2013,05,04,16,44,22.30
2013,05,04,16,45,22.40
2013,05,04,16,46,22.40
2013,05,04,16,47,22.30
2013,05,04,16,48,22.20
2013,05,04,16,49,22.20
2013,05,04,16,50,22.10
2013,05,04,16,51,22.10
2013,05,04,16,52,22.10
2013,05,04,16,53,22.20
2013,05,04,16,54,22.40
2013,05,04,16,55,22.50
2013,05,04,16,56,22.60
2013,05,04,16,57,22.60
2013,05,04,16,58,22.60
2013,05,04,16,59,22.60
2013,05,04,17,00,22.50
2013,05,04,17,01,22.40
2013,05,04,17,02,22.40
2013,05,04,17,03,22.30
2013,05,04,17,04,22.30
2013,05,04,17,05,22.40
2013,05,04,17,06,22.40
2013,05,04,17,07,22.50
2013,05,04,17,08,22.50
2013,05,04,17,09,22.60
2013,05,04,17,10,22.60
2013,05,04,17,11,22.70
2013,05,04,17,12,22.70
2013,05,04,17,13,22.70
2013,05,04,17,14,22.60
2013,05,04,17,15,22.60
2013,05,04,17,16,22.60
2013,05,04,17,17,22.70
2013,05,04,17,18,22.70
2013,05,04,17,19,22.80